Flag Weather past 2 weeks in Biarritz, France

Now
59 °F

Fog.


Feels Like: 59 °F
Forecast: 55 / 58 °F
Wind: No wind

Location: Biarritz Airport

Current Time: Nov 24, 2014 at 6:13:11 AM

Latest Report: Nov 24, 2014 at 6:00 AM


Visibility: 2 mi

Pressure: 30.07 "Hg

Humidity: 100%

Dew point: 59 °F

Location of BiarritzLocation

Historic Weather in Biarritz — Graph

°F

Biarritz temperature yesterday

Maximum temperature yesterday: 77 °F (at 2:30 PM)
Minimum temperature yesterday: 54 °F (at 8:00 AM)
Average temperature yesterday: 63 °F

Past Weeks' High & Low Weather Summary

 TemperatureHumidityPressure
High77 °F (Nov 23, 2:30 PM)100% (Nov 24, 2:30 AM)30.04 "Hg (Nov 24, 2:30 AM)
Low46 °F (Nov 10, 5:30 AM)32% (Nov 23, 4:00 PM)29.45 "Hg (Nov 11, 2:30 PM)
Average57 °F69%29.80 "Hg
* Reported Nov 9 5:00 AM — Nov 24 5:00 AM, Biarritz, Weather by CustomWeather, © 2014

Note: Actual official high and low records may vary slightly from our data, if they occured in-between our weather recording intervals... More about our weather records

Advertising

Biarritz weather history for previous 24 hours

 ConditionsComfort  
Time TempWeatherWind HumidityBarometerVisibility
5:00 AM
Nov 24
59 °FFog.2 mph94%30.04 "Hg1 mi
4:00 AM61 °FMostly cloudy.2 mph94%30.04 "Hg4 mi
3:30 AM59 °FMostly cloudy.6 mph100%30.04 "Hg4 mi
3:00 AM61 °FFog.3 mph94%30.04 "Hg3 mi
2:30 AM59 °FMostly cloudy.5 mph100%30.04 "Hg4 mi
2:00 AM59 °FLight rain. Mostly cloudy.3 mph94%30.04 "Hg4 mi
1:30 AM61 °FMostly cloudy.5 mph88%30.04 "HgN/A
12:30 AM61 °FMostly cloudy.6 mph94%30.04 "HgN/A
12:00 AM61 °FMostly cloudy.7 mph94%30.04 "HgN/A
11:30 PM
Nov 23
61 °FClear.6 mph94%30.01 "HgN/A
11:00 PM59 °FClear.6 mph94%30.01 "HgN/A
10:30 PM61 °FClear.5 mph94%29.98 "Hg6 mi
9:30 PM61 °FClear.6 mph94%29.98 "HgN/A
9:00 PM61 °FClear.6 mph94%29.98 "HgN/A
8:30 PM61 °FClear.6 mph88%29.98 "HgN/A
8:00 PM61 °FClear.5 mph88%29.98 "HgN/A
7:30 PM61 °FClear.6 mph88%29.95 "HgN/A
7:00 PM63 °FClear.8 mph77%29.95 "HgN/A
6:30 PM66 °FClear.8 mph64%29.95 "HgN/A
6:00 PM70 °FPassing clouds.5 mph43%29.92 "HgN/A
5:30 PM68 °FPartly sunny.5 mph56%29.92 "HgN/A
5:00 PM70 °FPartly sunny.2 mph53%29.89 "HgN/A
4:30 PM75 °FPartly sunny.3 mph36%29.89 "HgN/A
4:00 PM77 °FPartly sunny.5 mph32%29.89 "HgN/A
3:30 PM75 °FPartly sunny.5 mph44%29.86 "HgN/A
3:00 PM73 °FPartly sunny.5 mph50%29.86 "HgN/A
2:30 PM77 °FPartly sunny.1 mph39%29.86 "HgN/A
2:00 PM73 °FPartly sunny.3 mph44%29.86 "HgN/A
1:30 PM70 °FPartly sunny.2 mph60%29.86 "HgN/A
1:00 PM72 °FPartly sunny.1 mph47%29.86 "HgN/A
12:30 PM70 °FPartly sunny.2 mph53%29.89 "HgN/A
12:00 PM68 °FPartly sunny.3 mph56%29.89 "HgN/A
11:30 AM68 °FPartly sunny.3 mph53%29.89 "HgN/A
11:00 AM66 °FPartly sunny.2 mph60%29.89 "HgN/A
10:30 AM70 °FPartly sunny.3 mph46%29.89 "HgN/A
10:00 AM68 °FBroken clouds.5 mph46%29.89 "HgN/A
9:30 AM61 °FBroken clouds.5 mph68%29.86 "HgN/A
9:00 AM57 °FBroken clouds.2 mph82%29.86 "HgN/A
8:30 AM57 °FScattered clouds.5 mph77%29.86 "HgN/A
8:00 AM54 °FPassing clouds.2 mph88%29.86 "HgN/A
7:30 AM55 °FPassing clouds.5 mph77%29.86 "HgN/A
7:00 AM55 °FPartly cloudy.5 mph82%29.86 "HgN/A
6:30 AM57 °FPartly cloudy.8 mph77%29.86 "HgN/A
6:00 AM55 °FPassing clouds.6 mph88%29.86 "HgN/A
Weather by CustomWeather, © 2014

See weather overviewHow to use our weather pages